EDT,Max TemperatureF,Mean TemperatureF,Min TemperatureF,Max Dew PointF,MeanDew PointF,Min DewpointF,Max Humidity, Mean Humidity, Min Humidity, Max Sea Level PressureIn, Mean Sea Level PressureIn, Min Sea Level PressureIn, Max VisibilityMiles, Mean VisibilityMiles, Min VisibilityMiles, Max Wind SpeedMPH, Mean Wind SpeedMPH, Max Gust SpeedMPH,PrecipitationIn, CloudCover, Events, WindDirDegrees
2012-9-1,76,64,52,63,49,35,83,57,24,30.13,30.07,29.92,10,10,0,9,4,,0.00,1,,339
2012-9-2,76,62,49,52,45,38,84,60,26,30.17,30.12,30.10,10,10,10,8,2,,0.00,2,,255
2012-9-3,81,64,47,56,50,43,84,61,30,30.21,30.15,30.09,10,10,10,9,4,,0.00,0,,192
2012-9-4,69,66,63,61,57,53,84,72,65,30.11,30.02,29.85,10,10,2,13,6,,0.00,7,Rain,168
2012-9-5,77,70,62,62,60,57,84,76,55,29.89,29.82,29.70,10,7,0,13,7,20,0.00,7,Fog-Rain,340
2012-9-6,82,70,59,64,59,54,85,73,42,29.91,29.87,29.80,10,6,0,8,3,,0.00,4,Fog,184
2012-9-7,80,69,58,62,55,45,85,65,29,29.94,29.91,29.86,10,8,0,10,2,17,0.00,2,Fog,233
2012-9-8,81,70,61,64,59,55,81,69,44,29.85,29.66,29.50,10,10,2,24,9,34,0.00,3,Rain,182
2012-9-9,66,58,49,55,45,41,83,61,40,29.93,29.85,29.68,10,10,10,17,6,25,0.00,4,,271
2012-9-10,59,55,50,49,43,38,83,64,45,30.10,30.00,29.92,10,10,4,14,4,22,0.00,8,,300
2012-9-11,68,54,41,46,40,34,82,59,29,30.25,30.20,30.10,10,10,10,10,3,,0.00,0,,245
2012-9-12,79,63,47,50,46,40,82,56,24,30.34,30.29,30.25,10,10,10,10,6,16,0.00,0,,192
2012-9-13,83,68,52,56,50,44,83,56,26,30.33,30.28,30.22,10,10,10,9,6,,0.00,0,,193
2012-9-14,82,69,56,58,53,50,83,60,32,30.24,30.14,30.00,10,10,7,12,5,26,0.00,0,,178
2012-9-15,64,58,50,54,46,41,77,64,46,30.08,30.05,29.99,10,10,5,13,6,22,0.00,7,Rain,281
2012-9-16,61,48,37,42,34,26,82,57,27,30.11,30.06,30.02,10,10,10,17,5,23,0.00,1,,268
2012-9-17,77,58,39,52,43,34,84,62,28,30.06,30.02,29.97,10,10,10,10,5,16,0.00,0,,200
2012-9-18,69,60,50,64,54,46,84,76,61,30.00,29.78,29.53,10,9,3,26,8,39,0.00,5,Rain,180
2012-9-19,68,54,40,63,41,32,82,64,37,30.24,29.98,29.58,10,10,4,15,8,25,0.00,4,Rain,261
2012-9-20,65,50,34,42,37,31,87,63,35,30.28,30.19,30.11,10,9,0,13,5,21,0.00,0,Fog,184
2012-9-21,72,60,48,49,44,39,72,59,41,30.12,30.06,30.00,10,10,10,18,8,24,0.00,0,,165
2012-9-22,75,63,51,57,50,46,83,67,41,30.02,29.87,29.77,10,10,4,21,8,26,0.00,3,Rain,173
2012-9-23,62,52,42,55,40,31,83,60,31,30.09,29.95,29.81,10,10,7,16,6,23,0.00,4,Rain,241
2012-9-24,61,50,39,44,37,33,84,66,37,30.12,30.06,30.01,10,10,10,10,4,17,0.00,3,,201
2012-9-25,70,56,42,41,37,34,78,52,27,30.06,30.02,29.99,10,10,10,17,7,23,0.00,1,,190
2012-9-26,64,58,53,54,49,38,82,71,51,30.06,29.99,29.93,10,10,10,13,6,23,0.00,5,Rain,202
2012-9-27,58,48,38,47,39,33,84,65,41,30.28,30.20,30.07,10,10,1,12,5,18,0.00,4,,305
2012-9-28,57,44,33,46,39,30,87,79,54,30.27,30.17,30.06,10,8,0,13,5,21,0.00,5,Fog-Rain,182
2012-9-29,57,54,51,49,48,46,84,80,70,30.05,29.98,29.93,10,8,2,12,3,,0.00,8,Rain,355
2012-9-30,56,54,52,51,49,47,84,81,77,29.94,29.79,29.59,10,9,2,8,5,,0.00,8,Rain,332